Theta_e
331 330 330 331 331 331 332 333 335 336 336 337 337 337 339 340 340 340 338 339 340 339 339 338 339 340 340 343 345 345 343 342 341 340 337 335 335 335 336 336 336 336 336 335 333 331 332 336 338 338 336 334 332 332 334 335 336 337 338 340 341 341 341 341 341 341 341 341 341 340 340 340 340 341
331 330 329 330 330 330 330 331 332 333 334 336 338 338 337 338 339 339 338 338 338 338 338 338 339 339 339 341 345 347 345 341 342 342 339 337 336 334 335 336 336 337 336 335 332 331 333 336 339 339 338 336 334 333 333 335 337 338 340 340 340 340 340 340 340 341 341 340 340 340 340 340 340 341
330 329 328 328 327 327 328 329 329 330 331 332 334 336 337 337 338 339 338 338 337 337 337 336 335 336 338 340 344 347 346 343 342 343 341 339 337 336 336 336 336 337 337 335 332 333 335 337 339 339 338 336 335 334 334 336 338 339 339 339 339 340 340 340 340 340 340 340 340 340 340 339 340 340
327 326 326 325 326 328 329 328 328 329 330 331 331 333 335 335 336 338 339 337 335 336 337 335 334 335 338 340 342 345 347 346 344 344 343 340 338 338 338 337 337 337 337 335 334 335 336 337 338 339 339 338 337 337 337 338 339 339 339 339 339 339 339 339 340 340 340 340 340 340 340 339 339 340
326 325 324 324 326 329 330 330 329 329 330 332 332 331 332 333 335 338 339 338 336 335 335 335 335 335 338 339 340 342 343 343 343 344 344 342 340 339 339 339 339 339 338 336 336 337 336 336 337 338 339 338 338 339 339 339 339 339 339 339 338 338 338 340 340 341 341 341 341 341 341 341 340 340
324 323 323 324 326 327 328 329 329 329 330 332 332 332 331 332 334 336 338 338 338 337 336 335 335 335 336 338 339 340 339 336 337 340 342 342 340 339 339 340 340 340 339 338 337 338 337 336 337 338 338 339 339 339 339 339 339 339 338 337 337 337 337 338 338 339 340 340 341 342 342 342 342 342
322 322 323 326 327 326 325 325 326 328 329 330 331 331 331 332 333 334 336 338 338 337 336 336 335 336 337 338 338 340 339 334 333 338 341 338 337 338 339 340 342 342 342 342 339 338 338 338 338 338 339 339 339 340 340 339 338 337 336 336 335 335 335 336 337 338 339 340 340 341 342 342 342 343
322 322 325 326 326 323 322 322 323 325 328 330 330 330 330 331 332 333 335 336 337 337 337 337 336 336 338 339 339 341 342 337 334 339 343 339 337 338 338 340 342 341 343 345 343 338 338 338 338 339 339 339 340 339 338 338 336 336 336 336 336 336 336 336 337 337 337 338 340 341 342 342 342 343
324 326 326 325 322 321 321 322 323 324 325 327 329 330 331 332 332 332 333 335 336 337 338 337 336 336 338 339 339 341 343 340 335 337 342 342 338 337 338 340 342 342 344 347 345 340 338 338 338 339 339 338 338 338 336 336 336 336 337 337 337 337 337 337 337 337 336 337 338 341 342 343 342 343
327 328 325 322 320 319 320 322 323 323 324 326 327 328 330 332 332 333 334 337 337 336 336 336 336 337 338 339 340 341 343 342 339 340 343 343 340 336 338 341 343 344 346 346 344 341 339 338 338 337 337 337 336 335 336 336 336 337 337 337 337 336 335 336 336 337 337 337 338 340 342 343 343 343
328 327 323 322 320 319 320 322 323 323 323 325 325 326 328 330 332 333 335 338 338 336 335 335 336 336 337 339 340 340 341 342 342 343 345 344 341 337 338 341 342 345 347 345 341 339 339 338 338 337 336 336 336 335 336 336 336 336 336 336 334 333 333 334 335 336 337 337 338 340 342 342 342 343
327 325 323 322 319 318 320 322 324 324 323 323 323 324 327 329 331 331 333 335 337 336 335 336 337 337 337 340 341 339 340 342 342 342 343 344 343 341 340 340 340 343 346 345 341 340 339 339 338 338 337 338 337 337 336 336 336 336 336 334 333 333 333 332 333 335 337 338 338 340 341 341 341 342
326 325 323 321 319 318 319 321 324 325 323 323 323 323 325 328 330 331 332 333 335 337 337 337 337 337 337 338 340 339 339 342 341 340 340 342 343 342 342 342 341 342 345 345 344 342 341 339 339 339 338 338 338 338 337 336 335 336 335 335 333 333 333 333 333 335 337 337 339 339 340 340 341 341
326 325 323 321 319 318 318 319 323 324 323 323 322 322 324 326 329 330 332 333 334 336 338 336 335 336 337 337 340 339 339 341 341 339 341 342 342 342 344 346 344 341 341 342 343 343 342 340 339 339 338 338 338 339 338 336 335 335 335 335 334 333 333 333 333 335 337 337 338 338 339 340 341 341
325 325 324 323 321 318 318 318 320 323 324 323 323 322 323 326 328 330 331 332 333 334 336 336 336 337 337 337 339 339 339 341 341 341 343 343 341 340 342 345 343 340 338 340 342 343 343 342 339 338 338 340 341 341 339 336 335 335 334 334 335 334 334 333 333 335 336 337 337 338 339 340 340 341
323 323 324 325 322 319 317 317 318 322 324 324 323 322 323 325 328 329 330 331 332 332 333 335 336 338 337 337 338 339 339 340 341 341 343 343 342 342 341 341 341 340 338 339 341 342 343 343 340 337 337 340 342 342 341 339 337 336 335 335 335 335 334 333 333 334 336 337 337 338 339 339 340 341
322 322 322 324 323 321 319 318 318 321 324 325 324 323 322 324 326 329 329 331 332 332 332 332 334 337 339 338 339 339 340 340 340 342 343 342 342 342 343 341 340 340 339 339 341 342 343 345 342 338 337 338 340 342 341 339 339 338 336 336 336 335 335 334 333 334 336 337 337 337 338 339 340 340
322 321 322 322 322 323 322 321 320 321 324 325 324 323 322 323 326 328 329 330 331 332 333 332 332 335 338 338 338 339 339 339 339 340 341 342 342 341 341 339 339 341 341 340 342 343 343 345 345 342 339 339 339 340 340 339 338 338 336 335 336 336 336 335 333 335 336 337 337 338 339 339 340 341
322 321 322 322 322 323 325 324 323 323 324 324 324 324 322 322 325 328 328 329 330 331 333 334 333 332 334 336 338 339 338 339 339 339 340 343 343 341 341 340 340 343 343 341 342 343 342 344 346 345 344 342 341 341 340 338 338 337 335 336 337 337 336 334 334 335 336 337 338 338 339 340 341 343
322 321 321 322 322 323 324 325 324 324 324 324 324 323 322 321 324 326 327 328 329 329 331 334 335 334 333 333 337 338 338 339 339 340 341 342 342 342 343 343 342 342 344 342 341 343 344 344 346 348 347 346 345 345 342 338 336 336 336 337 338 337 335 333 334 336 337 337 338 338 339 341 343 344
322 321 320 321 322 322 323 323 324 324 324 324 324 322 321 322 323 325 326 328 328 329 330 332 335 336 335 333 334 337 339 339 339 340 340 340 341 342 343 343 341 341 343 342 341 343 345 344 345 347 348 347 347 348 346 342 337 337 338 337 336 335 334 334 335 336 337 338 338 338 340 343 344 343
321 320 319 320 321 321 321 321 322 324 324 324 324 321 321 323 324 325 326 327 328 329 331 332 334 336 336 335 334 335 336 337 337 338 338 339 341 342 343 343 342 341 342 342 342 344 345 344 344 347 349 348 348 349 349 346 342 340 338 336 334 334 334 335 336 337 338 338 337 338 341 344 345 343
319 318 319 320 320 320 320 321 322 323 324 324 323 320 321 323 324 324 326 327 328 329 331 332 333 335 336 336 335 334 334 334 335 337 337 338 340 341 341 342 342 342 341 341 343 345 345 344 344 346 348 348 348 349 348 347 345 341 337 334 335 335 335 336 337 338 338 337 337 338 341 344 344 344
319 318 318 319 319 319 320 322 322 323 323 324 322 320 321 322 322 324 326 328 328 329 331 333 334 335 336 337 336 336 335 334 334 336 337 338 339 340 340 341 342 342 340 340 341 343 342 343 345 347 347 348 349 349 349 347 345 341 336 335 335 336 336 337 337 337 337 338 338 340 343 344 343 343
319 318 318 318 318 320 322 322 322 323 323 323 321 320 321 322 322 323 326 327 327 328 331 333 334 335 337 338 338 337 336 335 335 335 336 337 338 338 339 341 341 341 341 340 341 341 342 342 344 346 347 347 347 348 349 347 345 342 339 337 337 338 338 337 336 337 337 338 340 342 343 343 343 343
318 318 318 318 319 321 322 322 322 323 324 323 321 320 321 322 322 322 323 325 325 326 328 332 335 336 336 338 338 338 338 336 335 335 336 336 336 337 338 339 340 340 341 341 341 342 342 342 343 345 347 347 345 345 347 348 347 346 343 341 340 339 338 337 336 337 339 341 342 342 343 343 342 342
318 317 317 318 320 321 321 322 323 324 324 323 321 320 321 322 322 321 322 323 323 324 325 328 332 335 336 337 338 339 339 338 337 336 337 337 336 335 335 337 339 340 340 340 340 342 343 343 344 346 346 346 345 345 346 348 349 347 345 344 343 341 340 339 339 339 341 341 341 341 342 342 342 342
318 317 317 318 320 322 321 321 323 325 325 323 321 320 320 322 322 322 321 321 322 322 323 324 327 330 333 335 337 338 339 339 339 337 337 337 338 337 336 337 338 339 340 340 340 342 343 343 344 345 345 344 345 345 345 346 347 347 345 345 344 344 342 342 342 341 341 342 341 340 341 341 341 341
318 317 317 319 322 323 321 321 323 325 325 324 322 320 320 322 322 322 321 321 321 322 323 323 325 327 330 332 335 337 339 340 339 339 338 338 339 338 337 337 338 338 340 340 340 341 342 342 343 344 344 344 345 345 343 343 345 346 347 345 344 344 344 344 343 342 341 341 340 339 340 340 341 341
319 316 318 321 324 324 323 323 324 325 325 324 323 321 320 321 321 322 321 321 321 322 323 324 324 326 328 331 334 337 340 340 339 339 339 339 339 339 338 338 338 338 339 340 340 341 342 342 341 342 343 344 345 344 342 342 343 344 346 346 344 344 343 343 343 342 341 340 339 338 338 338 338 339
319 317 320 323 325 325 325 325 325 326 325 325 324 323 322 320 321 322 322 321 322 322 323 324 324 324 325 328 331 336 340 341 339 338 339 340 339 338 338 338 338 339 338 338 338 339 341 341 341 341 342 343 343 343 342 343 343 342 343 345 344 343 343 343 342 342 341 339 337 337 337 337 337 337
320 320 322 324 325 325 325 325 325 325 324 324 324 325 324 322 321 321 321 321 321 321 321 322 324 324 324 324 327 332 338 341 340 339 339 339 339 339 339 338 339 340 338 337 337 337 337 339 341 342 341 341 342 344 344 344 343 342 342 344 344 343 343 343 342 342 341 339 338 338 338 338 337 337
321 322 323 324 323 324 324 324 323 323 323 322 322 323 325 323 322 321 321 320 321 320 319 319 323 324 324 323 324 327 331 335 339 340 340 339 340 341 340 339 339 340 339 338 337 337 338 340 342 342 341 340 341 343 343 343 343 342 342 343 343 342 341 342 342 341 340 338 338 338 338 338 337 338
322 323 323 323 322 322 322 322 322 321 322 322 321 322 324 324 324 322 321 320 320 320 320 318 320 323 324 324 325 325 325 327 333 338 340 341 341 341 340 338 338 338 337 336 337 338 339 340 341 341 340 340 340 341 341 341 342 342 342 342 342 341 340 341 341 340 339 338 338 339 338 338 337 336
323 323 323 321 321 321 321 322 322 322 322 323 322 322 323 324 324 324 322 321 321 321 321 320 318 320 322 322 323 325 324 323 324 328 332 334 335 336 337 338 338 338 337 337 338 339 340 340 340 340 339 340 341 341 341 341 340 341 341 341 341 341 340 340 340 339 337 337 338 338 339 339 338 337
322 322 321 320 320 320 321 321 322 322 322 323 323 322 322 323 324 324 324 324 322 321 322 321 319 319 320 320 320 321 321 321 320 320 322 324 325 326 329 331 333 335 336 337 337 338 339 339 340 340 340 340 340 340 340 339 340 341 341 340 341 340 340 340 340 338 337 338 338 338 339 339 338 337
321 321 320 319 319 319 320 320 321 321 321 321 321 322 321 322 323 324 324 325 325 323 323 323 322 319 319 319 320 319 319 320 320 319 318 319 319 320 321 322 325 327 330 331 333 335 337 338 339 340 340 339 339 338 338 338 340 340 340 340 340 340 339 339 339 338 338 338 338 338 338 338 338 337
319 319 318 318 318 319 319 319 319 319 319 319 319 319 319 320 321 322 323 324 325 324 323 323 323 321 319 319 320 320 318 317 319 320 320 319 319 319 318 318 319 322 324 326 328 330 332 334 335 337 338 338 337 336 335 335 336 337 338 339 339 339 338 339 339 338 338 338 337 337 337 337 337 337
317 317 316 316 317 318 318 318 318 318 318 318 318 318 318 318 319 320 320 321 323 324 324 323 323 323 321 320 321 321 320 317 317 319 320 320 322 323 321 318 317 319 321 322 323 325 327 329 329 331 332 332 332 333 333 332 333 335 336 337 338 337 338 338 338 336 337 337 337 337 337 337 337 337
315 315 315 316 316 317 317 317 317 317 317 318 317 317 317 318 318 318 319 319 321 323 324 323 323 323 323 323 322 322 322 321 319 317 317 319 321 324 324 321 318 317 317 319 319 320 322 323 324 325 326 327 328 329 329 330 330 331 331 332 332 333 334 334 334 334 336 337 337 336 336 336 336 336
313 313 314 315 315 315 315 315 315 316 316 316 316 317 317 316 317 317 318 318 319 320 321 323 323 323 323 323 323 322 322 323 322 320 319 317 319 321 324 324 321 318 316 316 316 316 317 317 318 319 321 323 325 325 325 325 324 324 324 323 324 325 326 327 329 331 332 334 334 334 335 335 335 336
311 313 314 313 313 313 312 312 312 312 313 314 314 315 315 315 315 316 316 317 317 318 319 320 321 322 322 322 322 322 322 323 323 323 322 321 321 322 323 324 323 321 318 316 315 316 316 316 316 316 317 319 320 321 320 318 318 319 318 318 318 319 319 321 324 327 328 328 330 331 332 333 333 333
311 311 311 311 311 311 310 310 310 310 310 311 311 312 312 313 313 314 314 315 316 317 318 318 319 320 321 321 321 321 321 322 323 323 324 324 324 323 323 324 324 323 321 318 316 315 315 315 316 316 316 316 316 316 316 315 315 316 316 315 317 319 319 318 319 321 322 324 325 326 327 327 328 329
310 309 308 309 310 310 310 310 310 309 309 309 309 310 310 310 310 311 312 313 313 314 315 316 317 317 318 319 320 320 320 321 322 323 323 324 324 323 323 324 324 324 323 322 320 319 316 315 315 315 315 315 315 315 315 315 315 316 316 316 318 320 320 319 319 318 318 319 319 319 320 321 322 324
308 307 307 308 308 308 308 309 308 308 308 308 308 308 308 308 308 308 309 310 311 311 311 312 314 315 315 316 317 318 319 319 320 321 322 322 323 323 323 323 323 324 324 323 323 322 320 319 317 316 315 315 315 315 315 315 315 316 317 318 319 319 319 320 321 321 320 320 318 317 318 318 318 319
Wind_Speed
21 21 22 23 23 24 24 25 26 29 29 30 30 31 30 29 28 27 25 25 24 23 23 23 24 26 28 29 30 29 29 29 28 28 29 29 30 29 29 28 29 31 31 31 32 32 31 30 31 32 34 35 36 35 34 33 33 33 32 31 31 31 31 31 31 31 31 31 31 32 32 32 32 31
19 22 22 23 23 24 24 24 25 27 29 30 31 33 34 32 32 31 30 29 28 25 25 25 24 25 26 29 29 27 28 28 26 26 28 29 31 31 30 29 29 29 30 30 30 31 31 30 30 31 32 33 34 34 33 33 32 32 31 31 31 30 30 30 30 31 31 31 31 31 31 31 32 32
19 21 22 24 25 26 26 26 27 27 29 31 32 33 34 34 34 35 34 34 33 30 28 29 28 26 24 24 23 23 25 26 25 26 26 27 29 30 31 30 30 30 29 29 30 30 30 30 30 30 30 31 32 32 32 32 31 31 30 30 29 29 29 29 29 29 30 30 30 31 31 31 31 32
19 20 22 24 25 27 28 29 30 30 30 29 31 33 34 35 36 36 35 38 38 34 31 32 31 28 26 24 22 21 22 24 25 26 26 26 26 28 29 30 30 31 30 29 29 30 30 31 31 30 30 30 30 30 30 31 30 30 29 28 28 27 27 27 27 27 28 28 28 29 29 30 31 31
20 21 23 24 25 25 27 28 29 30 31 31 32 32 33 36 37 37 37 40 41 39 36 36 34 30 28 27 27 26 27 28 28 29 29 28 26 27 28 28 29 30 30 29 29 30 30 31 31 31 31 30 30 30 30 30 29 28 28 27 27 26 26 26 26 25 25 26 26 27 27 28 29 29
20 22 23 24 25 25 27 29 29 29 30 31 33 33 33 35 37 39 38 39 41 41 38 38 38 36 33 32 31 31 33 35 33 32 34 33 30 29 29 27 28 29 29 29 30 30 30 31 31 31 31 31 30 29 29 28 27 27 26 26 25 25 25 25 25 24 24 25 25 26 26 26 27 27
20 23 23 23 24 27 29 31 32 31 30 31 34 36 35 35 37 40 41 40 41 41 39 38 38 38 36 35 35 34 37 40 36 34 36 36 33 32 31 29 28 28 28 28 29 30 29 30 31 30 30 29 29 28 27 27 26 25 25 24 24 24 24 24 24 24 24 24 24 25 25 26 26 26
21 22 22 23 25 29 32 34 34 33 31 31 33 35 35 35 37 38 41 43 42 41 40 38 37 37 35 35 36 34 35 38 36 34 35 35 32 31 31 30 28 28 27 26 28 30 29 30 30 29 29 28 28 27 26 26 25 24 23 23 22 23 23 23 23 24 24 24 24 24 25 25 26 26
21 21 21 24 28 32 34 34 34 35 35 32 33 34 34 34 35 37 40 43 43 42 40 39 38 37 35 36 37 33 33 35 35 35 35 34 33 31 31 30 30 29 28 27 29 30 30 30 30 29 28 27 27 26 26 25 24 23 23 22 23 23 23 24 24 24 25 25 24 24 25 25 26 26
19 20 22 25 29 33 33 32 33 35 36 32 30 34 35 33 32 34 38 40 41 42 41 40 40 37 35 37 37 33 32 33 33 33 33 31 31 32 31 31 31 30 31 32 31 30 30 30 29 29 28 27 26 26 26 25 24 23 23 23 23 23 23 24 25 25 25 25 25 24 24 24 25 26
17 20 23 24 28 32 33 33 33 34 33 30 29 32 32 33 33 32 35 38 39 40 39 39 39 39 38 38 36 35 34 33 33 33 30 29 31 32 32 32 31 30 30 33 34 32 31 30 29 28 27 26 26 26 26 25 25 24 23 22 22 22 23 23 25 26 26 26 25 24 24 24 25 26
17 20 22 23 27 31 32 32 33 33 33 31 30 30 27 28 32 33 35 36 35 35 34 33 36 38 38 36 34 35 35 34 35 35 32 30 30 30 30 31 32 31 30 32 33 33 32 31 30 29 28 28 28 27 27 27 26 25 23 22 21 21 21 22 24 25 26 26 25 24 24 25 25 26
17 20 22 22 26 31 32 33 33 33 35 33 31 30 26 23 27 34 36 33 30 30 30 34 37 38 40 39 36 36 36 34 34 34 33 33 31 28 27 28 30 32 32 32 32 31 32 32 31 30 30 31 30 30 30 29 27 26 25 23 22 20 20 21 22 24 25 25 25 25 25 26 26 26
18 20 23 23 25 30 33 34 34 34 37 38 36 33 28 23 24 30 35 35 31 29 29 35 38 39 42 41 37 37 38 36 34 32 33 34 32 29 27 27 30 31 31 33 33 32 31 33 33 32 32 32 31 31 31 30 29 27 26 25 23 21 21 21 22 23 24 25 25 25 26 26 27 27
20 21 24 24 24 27 32 35 36 35 37 41 41 38 30 22 19 22 30 36 36 31 29 32 34 38 42 40 36 36 37 36 34 32 32 32 31 31 29 29 31 32 30 31 34 33 32 33 34 34 32 31 30 30 30 30 29 28 27 27 26 24 23 22 22 23 24 25 25 26 26 26 26 26
21 23 25 25 24 24 28 33 36 36 36 40 43 42 36 26 19 17 21 30 35 35 33 33 34 38 43 41 37 35 36 36 33 32 32 32 31 31 31 31 32 30 28 30 33 35 33 32 35 36 34 32 29 28 28 28 28 29 29 29 29 27 26 25 24 24 24 25 25 25 25 25 25 25
22 24 26 27 26 24 24 29 34 35 36 38 41 43 40 32 25 21 18 21 29 34 36 37 37 37 37 36 36 35 35 35 33 31 32 33 32 31 32 31 29 27 26 28 33 36 33 31 34 37 36 33 30 29 29 29 28 28 29 30 30 30 29 27 26 25 24 24 25 25 25 25 25 25
22 25 26 27 26 26 25 27 30 34 36 38 40 42 40 35 29 25 23 19 21 27 33 39 42 40 35 34 35 34 34 34 35 35 33 31 32 33 32 31 28 26 26 27 30 34 33 31 32 35 35 33 31 30 30 30 29 28 28 29 30 30 30 28 27 26 24 24 25 25 25 24 24 24
22 24 26 26 26 26 26 26 27 31 35 38 39 40 41 39 33 28 27 25 20 21 28 35 40 43 43 39 34 32 34 35 36 36 33 29 30 31 30 29 28 28 27 27 30 33 33 32 32 33 32 32 31 31 31 31 30 29 28 29 30 29 28 28 27 25 24 24 24 24 23 23 22 22
24 25 25 26 25 25 26 27 27 28 32 36 38 39 41 40 36 32 31 32 28 22 25 32 35 39 43 43 38 34 35 36 34 33 32 29 29 30 28 28 29 27 27 29 32 32 31 31 32 31 30 30 30 28 29 30 29 28 29 29 28 27 27 27 26 24 24 24 23 23 22 21 20 20
24 24 24 25 25 25 25 27 27 28 30 33 35 38 40 39 35 34 35 38 36 27 24 33 37 36 37 41 42 40 38 36 33 32 33 32 31 31 29 29 29 28 28 30 32 32 30 29 30 31 29 29 28 26 26 28 28 27 28 27 26 26 26 26 25 23 23 23 23 22 21 20 20 20
24 24 23 23 23 24 25 26 27 27 28 31 33 36 38 36 34 35 38 40 38 29 22 29 38 40 38 39 41 43 43 41 37 36 37 36 32 29 28 29 30 29 29 28 28 31 32 29 29 30 28 27 28 27 24 26 27 26 26 25 24 24 24 24 23 22 22 22 22 22 21 20 20 20
24 22 21 21 21 23 24 25 25 25 26 28 30 32 34 34 34 36 38 38 34 29 23 23 32 38 39 38 39 40 43 44 41 39 39 39 35 31 29 30 29 27 28 29 29 30 31 29 30 30 28 26 26 26 25 26 27 26 25 24 23 23 23 23 22 22 22 22 22 22 21 21 21 20
24 23 21 20 21 22 22 23 24 24 24 25 27 29 30 32 34 35 36 36 31 27 25 22 26 33 35 35 37 38 39 41 43 42 40 38 36 34 32 30 29 30 30 28 30 33 32 30 29 30 29 27 25 24 24 26 26 25 24 23 22 21 22 22 22 21 21 21 22 22 22 22 21 20
24 23 22 21 20 21 22 23 23 22 21 22 25 28 29 31 34 34 34 35 33 27 24 20 20 27 31 32 33 35 37 38 41 43 43 40 36 34 34 31 29 30 29 25 27 31 32 31 30 30 30 28 24 22 22 24 24 24 23 22 21 21 21 22 22 21 21 21 22 22 23 22 21 20
23 22 21 20 21 22 22 22 22 20 18 20 23 26 27 29 33 34 32 33 34 33 27 18 13 19 27 32 32 33 35 37 40 41 42 43 40 38 38 35 32 31 30 26 25 27 31 32 31 30 30 29 25 21 21 24 22 19 19 19 17 18 20 21 21 21 21 22 22 22 22 22 22 21
23 22 20 20 22 22 20 20 20 18 17 18 22 25 26 27 30 34 35 33 34 35 33 25 15 11 17 28 34 35 35 36 37 39 40 41 42 42 41 37 32 31 32 30 27 27 31 32 29 26 27 28 26 22 20 22 21 17 16 15 14 15 17 18 20 21 22 22 22 22 22 22 23 23
22 20 19 20 21 19 17 18 19 16 14 17 20 23 25 26 28 32 35 36 35 36 37 35 29 22 13 17 29 37 39 36 36 39 41 40 39 40 43 40 34 30 31 32 30 28 28 30 28 26 25 26 26 24 20 18 18 20 18 14 13 15 15 15 16 19 21 22 22 22 23 24 24 24
20 19 18 18 18 16 15 18 18 15 14 16 17 20 22 24 26 29 32 35 38 38 38 37 37 34 26 14 19 34 40 39 37 38 39 39 38 36 38 39 38 34 32 31 30 27 25 24 25 25 25 24 24 24 22 18 16 18 19 16 15 17 16 14 14 15 17 20 21 21 22 23 24 25
19 18 17 16 16 15 15 17 18 16 16 16 14 16 20 22 23 27 30 33 35 37 37 37 38 40 37 26 11 25 37 37 36 37 37 39 42 40 38 38 38 38 37 33 31 29 25 22 23 25 25 24 22 23 24 21 16 15 18 16 15 17 18 15 14 14 15 17 18 18 19 21 22 24
17 16 15 14 15 16 15 16 17 17 17 16 14 14 17 20 21 24 28 31 32 33 35 36 38 40 41 40 27 6 31 37 35 35 37 39 41 40 39 38 37 38 40 38 35 34 31 27 27 29 29 27 25 24 25 23 18 15 16 16 16 17 18 16 15 15 15 15 15 15 16 18 20 22
15 14 13 13 14 14 15 16 17 18 18 17 16 15 16 17 19 22 26 29 30 32 35 35 38 41 43 47 46 23 12 31 34 33 34 36 36 35 35 36 33 32 35 35 35 35 34 31 28 26 26 26 24 23 24 23 20 16 16 18 18 18 17 16 16 16 15 13 12 12 13 15 17 17
13 13 13 13 13 13 14 15 15 17 18 17 17 17 16 16 18 20 23 26 28 31 35 36 37 41 43 45 49 44 27 8 16 26 29 31 32 32 34 37 34 28 27 28 29 31 33 32 27 23 22 23 22 22 23 23 21 19 17 18 19 19 18 17 17 17 15 12 11 10 11 12 13 14
13 13 11 11 12 13 13 14 14 15 18 18 18 18 18 17 18 19 21 24 26 28 32 34 35 37 39 41 44 47 48 39 21 11 18 24 27 27 29 31 30 27 25 25 27 29 31 30 27 23 21 20 21 22 23 23 22 20 18 19 19 18 19 19 18 17 16 13 11 10 8 8 8 10
12 11 10 10 12 12 11 12 13 14 16 18 18 18 18 18 18 18 19 20 22 24 27 30 31 32 33 37 40 42 44 46 41 32 24 16 12 13 15 18 20 23 26 26 26 27 27 28 27 25 22 20 21 20 19 20 22 21 20 20 18 17 19 21 18 16 16 15 13 12 10 9 7 8
10 9 9 10 11 11 11 11 13 13 14 16 17 17 17 17 17 19 19 17 18 20 22 24 27 29 29 31 35 37 38 39 41 42 39 34 29 24 18 13 10 12 17 20 22 23 21 23 28 29 24 21 20 19 16 16 19 19 19 20 19 17 19 20 17 15 15 15 15 14 12 11 10 9
8 8 9 9 9 10 10 10 11 13 14 15 16 17 17 18 19 19 19 17 17 19 20 19 21 24 26 27 30 31 33 33 35 37 38 37 37 35 32 28 24 20 17 15 12 14 16 17 23 28 29 26 22 19 16 15 17 18 17 17 17 16 17 17 16 14 13 14 15 15 15 14 13 11
6 6 8 9 9 10 11 11 12 13 14 15 17 17 18 19 21 20 20 19 18 19 19 19 18 19 21 24 27 27 28 29 30 31 32 34 35 34 32 30 27 25 25 25 21 13 9 9 9 14 24 28 25 21 19 15 12 12 14 14 15 16 17 15 14 13 13 13 14 14 14 14 14 12
7 7 8 9 10 11 12 13 14 14 15 16 17 18 19 20 21 21 22 21 19 17 18 18 18 17 18 19 21 22 24 26 27 27 27 27 27 28 28 28 27 26 25 24 25 24 19 17 19 18 18 22 22 21 21 20 16 13 12 11 10 12 15 14 12 12 13 13 13 12 11 12 13 12
7 7 7 8 10 11 12 13 13 13 15 16 16 17 19 20 20 21 23 22 20 18 17 17 16 16 16 16 16 17 19 20 22 23 24 23 23 23 24 26 26 27 25 24 23 24 24 23 22 22 21 23 23 21 22 23 21 18 16 14 12 10 10 9 9 10 11 11 11 11 10 10 12 13
6 6 6 6 8 9 10 11 12 12 12 13 14 15 17 18 19 19 20 21 21 20 19 18 16 16 16 16 14 14 15 16 16 16 17 19 20 20 20 21 22 23 24 24 23 23 24 23 20 18 17 17 16 17 20 22 21 20 18 16 15 13 12 11 10 9 9 7 7 8 10 10 11 12
5 5 5 6 7 9 10 10 11 12 13 13 13 13 14 15 15 16 16 17 19 20 21 20 18 16 15 15 14 13 14 14 13 12 11 12 13 13 14 15 16 18 19 20 21 21 21 19 17 15 15 14 13 15 18 19 19 18 17 15 14 13 13 13 13 12 11 10 9 9 10 9 10 9
6 6 6 7 7 9 10 11 12 13 14 14 14 14 14 15 15 15 16 16 17 18 18 19 19 17 16 16 15 15 14 13 12 11 11 10 10 10 11 12 12 13 13 14 15 15 16 15 14 13 13 14 15 16 18 18 17 16 16 15 13 12 12 11 11 11 10 9 9 10 10 10 10 10
5 5 6 7 7 8 9 10 12 13 13 13 14 15 15 16 16 16 16 16 16 16 15 15 16 17 17 16 16 16 15 14 12 11 11 10 9 9 9 10 10 10 9 8 8 8 9 11 12 13 14 14 14 14 15 15 14 14 13 13 11 10 9 8 8 7 6 6 6 6 7 7 7 7
3 3 5 6 7 7 8 9 10 11 11 12 13 14 14 15 15 15 15 15 14 15 15 15 15 15 15 16 16 16 15 14 13 12 10 9 8 8 8 8 8 8 7 6 4 3 3 5 6 9 11 12 12 12 12 12 11 11 10 9 8 7 6 5 5 4 3 3 3 4 3 3 3 3
Wind_Direction
313 311 309 305 302 301 296 289 283 281 280 274 263 258 257 252 250 254 259 258 256 255 253 252 251 248 244 240 235 237 242 245 245 246 248 250 251 253 255 254 250 247 246 247 247 248 249 248 246 244 243 242 242 242 244 247 251 254 255 256 257 258 259 259 259 260 261 263 264 266 267 267 267 266
320 319 319 316 312 309 304 297 289 284 282 274 263 261 261 254 247 250 257 258 258 256 251 249 251 252 249 243 234 236 246 250 248 247 248 249 250 251 253 255 254 250 246 246 246 246 246 246 245 243 241 240 239 239 241 244 248 251 252 254 256 257 258 258 259 260 260 261 262 262 263 263 264 264
323 322 323 321 319 317 314 309 301 293 287 280 274 269 263 257 252 250 252 256 257 255 254 254 252 250 249 245 235 236 247 253 251 249 248 247 247 249 251 253 255 254 248 245 244 243 242 242 242 242 239 237 236 236 238 242 244 247 249 252 253 254 255 256 257 258 259 259 260 260 260 260 261 261
325 325 325 324 322 319 315 312 307 302 297 289 281 274 268 264 259 252 251 256 257 254 254 257 256 250 245 244 241 238 242 248 251 251 248 246 245 245 248 251 252 253 250 245 242 241 241 241 241 239 237 235 234 235 237 240 242 244 246 248 249 251 252 253 255 256 257 258 259 260 260 260 260 259
327 328 329 328 325 319 313 310 307 302 298 292 285 279 274 269 262 255 252 254 256 256 254 255 257 251 244 244 245 244 243 245 248 249 248 248 248 245 245 248 250 250 249 245 242 240 240 241 240 238 236 235 235 236 237 238 240 241 243 245 247 249 249 251 252 254 255 257 258 259 260 261 260 259
330 331 330 328 325 322 317 312 308 302 296 291 286 281 277 272 265 259 256 252 254 257 257 256 257 253 248 246 245 246 249 251 252 251 249 249 250 249 246 245 246 247 247 246 242 240 239 239 238 236 236 236 235 235 235 236 237 239 242 244 245 247 248 249 250 252 255 256 258 259 259 260 261 260
332 334 332 329 326 325 321 317 314 309 299 291 287 282 277 275 269 263 259 254 252 256 258 256 255 254 252 250 248 247 249 255 256 251 251 252 250 249 246 242 241 242 244 244 241 239 237 237 236 235 235 234 232 232 232 233 236 238 240 242 244 246 247 249 250 252 254 255 256 258 258 259 259 259
333 335 332 329 328 328 326 323 322 318 307 294 288 285 280 277 273 267 261 256 252 254 253 252 253 254 251 250 250 247 245 251 252 245 247 252 251 247 245 240 236 237 240 240 239 238 236 234 232 231 230 229 229 230 231 232 234 236 239 241 244 247 248 250 252 254 256 257 258 258 257 257 257 257
330 330 328 330 333 333 331 329 329 327 318 301 287 285 282 277 274 270 264 257 252 250 248 251 255 254 249 248 248 244 240 245 247 243 242 246 248 246 242 238 234 233 233 232 233 235 234 232 230 228 227 227 228 229 230 230 232 235 239 243 246 249 252 254 256 257 258 259 259 259 258 257 256 255
323 322 325 333 339 339 336 333 334 332 325 312 299 292 284 273 271 271 265 257 251 249 250 253 256 253 248 248 245 239 238 240 241 239 235 237 243 243 238 234 231 228 226 228 232 234 232 230 228 226 226 227 228 229 229 230 232 236 239 243 248 252 255 257 258 258 258 258 258 258 258 258 256 255
316 320 325 332 340 344 342 337 338 337 330 322 317 311 295 276 270 269 265 260 253 250 251 252 253 252 249 248 244 239 239 237 235 235 233 234 242 243 238 234 232 227 227 231 235 236 235 232 230 228 228 228 229 230 231 232 234 236 239 243 249 254 257 260 260 259 256 256 256 256 256 257 257 257
311 319 324 329 339 346 345 339 341 344 340 331 323 322 312 287 273 265 265 266 256 248 249 251 251 251 248 246 244 242 240 234 229 231 233 235 238 241 239 237 232 226 227 231 233 233 233 233 232 231 232 232 233 234 235 235 235 235 238 243 249 256 261 263 263 261 256 254 253 254 255 257 257 257
308 315 320 327 339 346 346 343 341 342 343 340 333 331 325 303 280 265 263 269 263 251 250 251 250 250 249 246 244 241 239 235 231 231 233 233 234 237 239 238 233 227 226 229 230 229 231 232 232 233 234 235 236 237 237 237 235 235 238 243 250 258 264 266 266 262 257 252 252 253 255 256 256 256
304 311 317 325 337 346 350 349 344 339 340 342 341 340 335 319 297 274 264 266 266 259 255 253 252 251 249 246 243 241 239 238 236 233 230 229 230 231 232 234 237 235 231 231 230 229 230 232 233 234 235 236 237 238 239 238 237 237 240 244 250 258 265 268 267 263 257 252 251 253 255 256 256 256
304 308 314 320 331 345 353 352 347 342 341 341 341 343 342 330 312 291 274 267 265 262 258 255 252 249 245 242 240 241 240 239 236 232 228 227 230 230 228 231 236 238 235 231 230 230 230 231 234 236 237 237 236 237 238 240 241 241 243 245 249 256 264 268 269 264 257 253 252 254 256 257 257 257
306 308 313 317 324 338 351 353 348 343 340 339 340 342 343 339 331 316 291 274 267 263 259 255 252 247 243 241 240 239 238 238 237 234 230 230 232 231 229 231 236 239 236 229 228 229 229 229 233 237 238 237 237 239 240 242 243 243 244 247 249 254 261 267 269 265 257 254 255 256 256 257 257 256
307 310 312 316 320 326 338 348 348 341 337 337 338 339 341 341 340 337 321 289 271 264 258 254 251 245 239 238 239 236 235 235 235 234 232 231 231 229 227 231 236 239 235 227 224 227 227 225 230 235 237 237 237 242 244 245 244 243 245 248 250 253 258 265 267 263 257 255 256 256 256 256 255 255
306 312 312 316 320 320 324 335 340 338 335 334 335 335 337 339 339 340 340 322 288 268 261 255 251 245 241 241 242 237 235 236 235 235 234 231 230 231 232 235 236 235 234 227 223 225 224 221 225 232 235 235 236 240 244 246 246 247 248 250 251 253 256 262 264 260 255 255 256 256 254 253 253 253
308 314 312 314 319 321 322 328 333 334 333 332 331 333 336 338 338 339 340 336 315 283 267 261 256 250 245 245 244 239 235 234 234 235 235 231 231 232 233 233 233 231 230 225 222 226 226 221 222 226 228 231 233 236 240 244 246 249 251 252 252 253 255 259 259 255 252 253 254 253 251 250 251 251
315 315 313 314 317 321 325 328 332 334 332 330 331 334 336 337 336 337 337 335 326 301 268 256 255 253 249 245 242 236 232 232 232 233 234 235 235 231 226 227 229 227 227 226 224 225 225 221 220 222 223 226 229 230 235 241 245 248 250 251 252 253 254 255 254 250 250 251 250 248 246 246 248 244
319 317 318 317 317 322 327 329 333 335 331 328 330 335 338 337 334 335 336 332 329 317 277 249 243 245 246 244 240 234 231 232 233 234 235 236 237 234 226 224 226 225 225 228 226 222 222 220 219 222 223 223 223 224 231 240 244 246 248 249 250 251 251 250 248 247 247 247 246 244 241 242 242 237
323 321 321 321 321 325 328 329 332 334 331 329 331 336 340 339 335 335 336 332 328 322 293 254 240 237 238 239 239 237 237 240 240 237 236 235 235 235 229 224 225 225 225 228 224 220 221 221 220 221 221 219 219 219 224 234 240 243 245 247 247 248 246 245 244 243 243 244 242 239 238 238 238 236
329 327 326 327 328 329 329 329 331 333 332 330 332 337 341 342 339 338 339 337 332 327 313 273 244 237 238 237 237 237 239 241 239 235 234 234 233 233 232 229 227 225 225 226 222 219 221 221 219 218 215 214 214 213 216 227 235 239 244 246 245 244 243 241 241 240 240 241 239 235 233 234 236 235
331 332 332 333 334 333 331 330 331 333 333 331 334 340 345 347 346 343 345 347 343 335 325 297 255 239 238 239 239 238 237 238 236 234 233 232 231 232 232 231 228 227 227 226 223 224 227 225 220 217 214 213 212 207 211 223 232 236 242 246 244 241 239 237 237 238 238 237 235 232 230 232 234 234
329 330 332 334 335 335 333 331 330 332 335 335 338 344 349 350 349 348 351 357 357 349 338 316 272 244 237 238 240 238 236 235 233 232 232 231 231 230 229 228 228 227 226 224 224 228 229 225 221 216 212 212 215 211 209 218 231 239 242 245 243 238 236 235 234 235 235 233 229 228 229 229 230 231
330 330 332 333 334 334 332 331 331 333 336 339 344 350 352 351 352 355 356 360 4 4 0 344 298 257 242 238 238 236 234 234 231 229 230 231 231 230 229 229 231 229 225 222 224 230 229 224 221 218 212 211 216 219 212 212 221 236 243 243 241 236 232 233 234 233 230 228 226 226 228 228 228 228
329 329 331 330 330 330 330 332 335 336 338 343 351 357 356 355 360 5 6 5 5 9 13 13 358 308 260 244 239 234 231 231 229 225 225 227 229 230 230 228 229 231 230 225 224 228 228 222 219 218 214 211 214 220 218 210 211 222 232 233 234 235 230 228 232 234 228 225 225 227 228 228 227 227
328 327 327 327 328 328 329 335 339 340 341 346 355 1 1 1 4 7 11 13 12 12 17 21 19 7 330 263 242 234 231 230 228 224 223 222 224 228 228 226 225 230 233 229 227 229 227 220 218 221 220 217 218 222 226 223 218 220 223 220 221 228 228 223 226 232 230 228 229 229 228 228 228 227
327 325 324 327 330 327 328 335 338 342 347 349 354 3 6 7 7 8 12 17 19 19 18 20 22 19 7 328 251 231 227 227 224 222 221 220 219 221 224 224 224 227 231 231 229 230 229 223 222 225 225 223 221 221 227 236 233 217 211 207 207 214 219 218 217 223 229 232 232 230 227 227 228 228
326 327 327 332 335 329 328 334 334 338 348 349 351 5 10 10 11 13 15 17 20 22 21 21 23 24 19 9 312 230 220 222 225 221 219 221 221 220 221 222 222 224 229 230 229 228 230 230 231 234 231 225 221 220 226 236 240 221 207 201 199 206 214 216 214 219 228 233 233 228 224 224 226 226
325 328 330 340 344 336 334 338 335 338 349 352 349 360 10 11 12 18 20 18 17 21 23 24 26 27 27 25 17 262 215 219 226 224 222 224 225 222 219 219 221 224 228 231 231 231 233 238 242 242 236 227 223 223 226 231 236 231 216 206 200 205 212 212 210 216 226 233 230 219 215 220 223 223
330 338 342 347 347 341 341 345 342 342 350 357 357 358 4 9 11 17 23 21 19 22 24 25 27 29 32 31 29 32 197 213 225 231 228 224 220 217 215 213 215 222 227 229 231 232 232 235 238 234 227 224 224 223 222 226 229 227 219 210 205 207 212 209 204 207 216 224 219 207 207 219 224 222
334 348 351 345 342 347 349 345 342 344 350 357 5 6 5 7 10 14 21 23 23 26 27 25 25 30 34 34 34 37 49 104 209 224 223 214 207 209 212 211 211 219 226 228 230 230 229 231 234 230 220 220 223 222 221 224 227 227 220 210 206 208 208 202 197 198 201 204 201 196 201 214 219 216
335 346 349 340 340 351 353 344 340 346 348 351 2 10 8 7 10 12 17 22 24 28 31 30 28 30 35 38 38 39 43 52 72 144 185 195 202 212 217 216 218 226 232 232 232 232 228 227 234 241 235 226 224 224 225 226 229 229 219 203 200 203 199 191 189 190 190 189 190 188 186 192 202 204
332 340 348 344 343 350 355 348 345 351 351 348 354 5 7 5 6 9 12 17 22 25 30 34 35 35 37 40 41 42 44 48 54 63 78 105 147 182 199 208 218 228 232 233 233 233 227 223 229 236 234 225 218 217 219 224 227 227 216 204 201 201 193 188 187 187 183 182 183 180 173 172 179 182
335 348 2 356 349 354 2 358 354 1 5 359 358 5 9 5 6 9 8 9 18 23 25 31 37 39 41 42 40 40 42 46 49 51 54 59 65 72 84 102 136 180 199 209 218 223 223 224 228 227 219 210 205 201 200 208 215 214 207 200 200 198 190 185 186 187 185 183 180 177 174 172 172 168
347 2 11 3 359 6 12 10 8 11 17 16 14 16 18 15 14 14 11 11 19 23 21 25 36 41 44 46 45 41 38 41 46 50 52 54 55 57 60 65 74 89 104 121 160 195 205 208 213 212 206 199 192 184 178 184 196 198 194 192 194 196 191 187 186 188 187 184 182 180 179 179 180 178
352 4 12 10 11 19 22 22 21 20 20 21 21 22 24 22 19 18 16 17 24 27 25 27 37 44 46 49 51 49 44 40 40 45 52 55 55 55 55 57 62 68 73 77 83 100 136 149 152 176 185 182 175 167 158 149 152 170 179 183 188 192 192 189 187 187 187 188 190 188 187 189 191 190
3 10 20 20 20 26 27 24 23 23 22 21 20 21 23 23 20 17 16 16 23 31 33 35 43 49 49 49 50 53 54 50 44 44 46 47 49 52 53 53 55 58 62 66 70 74 80 78 69 76 108 128 132 139 142 131 118 123 143 153 163 178 183 179 174 175 179 185 192 194 194 197 198 196
15 17 23 21 15 15 16 14 14 19 22 20 18 18 20 20 19 19 19 18 20 26 32 38 46 50 50 50 50 51 55 59 58 55 51 44 40 42 48 52 53 54 56 61 65 67 69 68 63 63 75 88 98 112 124 123 114 112 116 113 110 124 142 146 151 165 173 179 187 187 183 186 192 191
23 25 28 24 17 15 15 13 14 19 22 18 14 12 13 13 14 18 21 21 21 23 26 30 37 42 46 50 53 51 50 54 59 61 62 56 47 39 41 50 57 59 59 61 64 67 68 68 67 66 70 77 90 103 109 107 104 102 99 96 94 95 95 93 100 121 137 144 155 163 164 171 180 183
40 44 45 45 40 36 33 28 23 23 25 24 21 19 17 16 16 17 20 21 22 24 24 25 26 30 35 40 45 50 54 53 51 53 60 63 59 49 41 44 56 64 66 65 65 67 68 66 65 68 73 76 81 85 84 84 87 89 86 83 82 84 86 85 88 95 101 100 104 116 126 137 146 151
73 64 51 50 49 39 32 27 23 23 25 26 26 28 28 28 26 25 26 27 25 24 24 23 23 25 29 30 30 36 45 49 47 47 48 48 49 51 49 47 53 62 69 72 73 74 74 70 67 68 73 77 80 78 74 72 75 79 79 78 77 77 80 83 85 90 95 97 99 105 108 111 115 117
95 72 45 42 43 33 26 25 24 23 24 24 25 27 30 30 29 30 32 33 31 30 31 30 27 27 28 28 25 26 32 36 34 35 40 41 37 38 43 47 51 55 61 71 80 85 89 89 84 78 74 73 75 78 80 78 76 75 75 76 78 78 78 80 81 83 87 90 89 93 100 105 110 116
78 47 24 28 38 36 33 32 28 24 23 22 20 20 20 21 23 25 28 31 33 34 36 38 38 36 32 30 27 25 26 28 27 24 26 29 27 27 33 42 47 52 58 61 55 60 106 118 107 97 92 86 79 78 79 77 76 76 75 75 78 81 83 85 85 80 85 94 85 68 61 64 81 112